Location: Ajisawe
(8.4333°N, 4.3833°E)
Time: 22:52:38
(UTC+00:00)

Vanguard 1 Rocket - Pass Details

Date: 27 April 2021
Orbit: 652 x 4224 km, 34.3° (Epoch: 10 May)

Event Time Altitude Azimuth Distance (km) Brightness Sun altitude
Exits shadow 03:41:45 - 208° (SSW) 7,808 11.7 -26.0°
Reaches altitude 10° 03:46:39 10° 199° (SSW) 7,354 11.6 -24.9°
Maximum altitude 04:05:19 24° 154° (SSE) 6,072 11.6 -20.5°
Drops below altitude 10° 04:20:47 10° 108° (ESE) 6,239 12.5 -16.9°
Sets 04:26:28 0° 94° (E) 6,726 13.2 -15.6°
